Galveston, TX

11:41 PM CST on November 24, 2017 (GMT -0600)
Scholes International At Galveston

Weather History for KGLS - May, 2014

Change the Weather History Date:

Thursday, May 8, 2014

  Actual Average Record
Temperature  
Mean Temperature 76 °F 76 °F  
Max Temperature 77 °F 81 °F 87 °F (1956)
Min Temperature 74 °F 71 °F 54 °F (1917)
Degree Days  
Heating Degree Days 0 0  
Month to date heating degree days 0 0  
Since 1 July heating degree days 1425 1009  
Cooling Degree Days 11 11  
Month to date cooling degree days 61 80  
Year to date cooling degree days 249 323  
Growing Degree Days 24 (Base 50)    
Moisture  
Dew Point 73 °F    
Average Humidity 97    
Maximum Humidity 100    
Minimum Humidity 94    
Precipitation  
Precipitation T in 0.13 in 3.02 in (1885)
Month to date precipitation T 1.07  
Year to date precipitation 4.97 14.05  
Snow  
Snow 0.00 in - - ()
Month to date snowfall 0.0  
Since 1 July snowfall T 0.0  
Snow Depth 0.00 in    
Sea Level Pressure  
Sea Level Pressure 29.92 in    
Wind  
Wind Speed 17 mph (SSE)    
Max Wind Speed 23 mph    
Max Gust Speed 30 mph    
Visibility 6 miles    
Events Rain    
T = Trace of Precipitation, MM = Missing Value Source: NWS Daily Summary

Daily Weather History Graph

Daily Weather History Graph

Search for Another Location

Airport or City:

Trip Planner

Search our weather history database for the weather conditions in past years. The results will help you decide how hot, cold, wet, or windy it might be!

Date:

Astronomy

May. 08, 2014 Rise Set
Actual Time 6:32 AM CDT 8:00 PM CDT
Civil Twilight 6:06 AM CDT 8:25 PM CDT
Nautical Twilight 5:36 AM CDT 8:56 PM CDT
Astronomical Twilight 5:04 AM CDT 9:28 PM CDT
Moon 2:28 PM CDT (5/8) 2:34 AM CDT (5/8)
Length of Visible Light 14h 19m
Length of Day
13h 28m
Waxing Gibbous, 65% of the Moon is Illuminated
May 8
Waxing Gibbous
May 14
Full
May 21
Last Quarter
May 28
New
Jun 5
First Quarter

Hourly Weather History & Observations

Time (CDT) Temp. Dew Point Humidity Pressure Visibility Wind Dir Wind Speed Gust Speed Precip Events Conditions
12:52 AM 75.0 °F 73.0 °F 94% 29.93 in 9.0 mi SSE 18.4 mph - N/A   Overcast
1:36 AM 75.0 °F 73.0 °F 94% 29.92 in 10.0 mi SSE 19.6 mph - 0.00 in   Overcast
1:52 AM 75.2 °F 73.4 °F 94% 29.92 in 10.0 mi SSE 18.4 mph - N/A   Overcast
2:13 AM 75.0 °F 73.0 °F 94% 29.93 in 9.0 mi SSE 16.1 mph - N/A   Overcast
2:52 AM 75.0 °F 73.0 °F 94% 29.94 in 9.0 mi SSE 15.0 mph - N/A   Overcast
3:35 AM 75.0 °F 73.0 °F 94% 29.94 in 9.0 mi SSE 16.1 mph - N/A   Overcast
3:43 AM 73.9 °F 73.0 °F 97% 29.93 in 8.0 mi SSE 16.1 mph - N/A   Overcast
3:52 AM 73.9 °F 73.0 °F 97% 29.93 in 8.0 mi SSE 16.1 mph - N/A   Overcast
4:52 AM 73.9 °F 73.0 °F 97% 29.94 in 9.0 mi SSE 12.7 mph - N/A   Overcast
5:10 AM 73.9 °F 73.0 °F 97% 29.93 in 9.0 mi SSE 12.7 mph - N/A   Overcast
5:17 AM 73.9 °F 73.0 °F 97% 29.93 in 9.0 mi SSE 11.5 mph - N/A   Overcast
5:26 AM 73.9 °F 73.0 °F 97% 29.93 in 8.0 mi SSE 13.8 mph - N/A   Overcast
5:35 AM 73.9 °F 73.0 °F 97% 29.93 in 8.0 mi SSE 12.7 mph - N/A   Overcast
5:52 AM 73.9 °F 73.0 °F 97% 29.93 in 8.0 mi SSE 15.0 mph - N/A   Overcast
6:24 AM 73.9 °F 73.0 °F 97% 29.94 in 8.0 mi SSE 15.0 mph - N/A   Mostly Cloudy
6:34 AM 73.9 °F 73.0 °F 97% 29.93 in 8.0 mi SSE 13.8 mph - N/A   Mostly Cloudy
6:52 AM 73.9 °F 73.0 °F 97% 29.94 in 3.0 mi SE 16.1 mph - N/A   Overcast
7:05 AM 73.9 °F 73.0 °F 97% 29.93 in 3.0 mi SE 16.1 mph - N/A   Overcast
7:52 AM 75.0 °F 73.0 °F 94% 29.94 in 3.0 mi SE 15.0 mph - N/A   Overcast
8:29 AM 75.0 °F 73.0 °F 94% 29.95 in 3.0 mi SE 16.1 mph - N/A   Overcast
8:52 AM 75.0 °F 73.0 °F 94% 29.95 in 3.0 mi SE 15.0 mph - N/A   Overcast
9:03 AM 75.0 °F 73.9 °F 96% 29.95 in 3.0 mi SE 16.1 mph - N/A   Overcast
9:52 AM 75.2 °F 73.4 °F 94% 29.95 in 3.0 mi SE 17.3 mph - N/A   Overcast
10:52 AM 75.9 °F 73.9 °F 94% 29.95 in 3.0 mi SSE 16.1 mph - N/A   Overcast
11:52 AM 75.9 °F 73.9 °F 94% 29.96 in 3.0 mi SSE 20.7 mph - N/A   Overcast
12:52 PM 75.2 °F 73.4 °F 94% 29.91 in 3.0 mi SE 19.6 mph 26.5 mph N/A   Overcast
1:25 PM 75.9 °F 73.0 °F 91% 29.93 in 3.0 mi SSE 21.9 mph - N/A   Mostly Cloudy
1:34 PM 75.0 °F 73.9 °F 96% 29.94 in 3.0 mi SSE 19.6 mph - 0.00 in Rain Light Rain
1:52 PM 75.0 °F 73.9 °F 96% 29.94 in 3.0 mi South 19.6 mph - 0.00 in   Overcast
2:52 PM 75.0 °F 73.9 °F 96% 29.93 in 8.0 mi SSE 19.6 mph - N/A   Overcast
3:25 PM 75.9 °F 73.9 °F 94% 29.91 in 8.0 mi SSE 17.3 mph - N/A   Overcast
3:52 PM 75.2 °F 73.4 °F 94% 29.90 in 3.0 mi SSE 18.4 mph - N/A   Overcast
4:52 PM 75.9 °F 73.9 °F 94% 29.90 in 3.0 mi SSE 19.6 mph - 0.00 in   Overcast
5:26 PM 75.9 °F 73.9 °F 94% 29.88 in 3.0 mi SE 21.9 mph 29.9 mph N/A   Overcast
5:47 PM 75.2 °F 73.4 °F 94% 29.86 in 3.0 mi SE 19.6 mph - N/A   Overcast
5:52 PM 75.0 °F 73.9 °F 96% 29.87 in 3.0 mi SSE 19.6 mph - N/A   Overcast
6:52 PM 75.2 °F 73.4 °F 94% 29.89 in 8.0 mi SSE 18.4 mph - N/A   Overcast
7:52 PM 75.0 °F 73.9 °F 96% 29.89 in 9.0 mi SSE 13.8 mph - N/A   Overcast
8:52 PM 75.0 °F 73.9 °F 96% 29.90 in 9.0 mi SSE 16.1 mph - N/A   Overcast
9:52 PM 75.0 °F 73.9 °F 96% 29.93 in 9.0 mi South 15.0 mph - N/A   Overcast
10:52 PM 75.0 °F 73.9 °F 96% 29.93 in 9.0 mi South 17.3 mph - N/A   Overcast
11:52 PM 75.0 °F 73.9 °F 96% 29.92 in 9.0 mi SSE 16.1 mph - N/A   Overcast